| time (UTC) | temp C | wind direction | speed KPH | gust KPH | rain 1hr cm | rain 24hr cm | rain mn cm | humidity % | barometer mb |
| 20260505083722 | 16 | 144 | 4.8 | 6.4 | 0.00 | 0.00 | 0.00 | 73 | 1010.7 |
| 20260505083219 | 16 | 147 | 3.2 | 4.8 | 0.00 | 0.00 | 0.00 | 73 | 1010.7 |
| 20260505082715 | 16 | 147 | 3.2 | 4.8 | 0.00 | 0.00 | 0.00 | 73 | 1010.3 |
| 20260505082213 | 16 | 155 | 4.8 | 4.8 | 0.00 | 0.00 | 0.00 | 73 | 1010.6 |
| 20260505081708 | 16 | 174 | 1.6 | 3.2 | 0.00 | 0.00 | 0.00 | 73 | 1010.3 |
| 20260505081206 | 17 | 212 | 3.2 | 6.4 | 0.00 | 0.00 | 0.00 | 73 | 1010.5 |
| 20260505080703 | 17 | 212 | 3.2 | 6.4 | 0.00 | 0.00 | 0.00 | 73 | 1010.5 |
| 20260505080158 | 17 | 212 | 3.2 | 6.4 | 0.00 | 0.00 | 0.00 | 73 | 1010.7 |
| 20260505075654 | 17 | 212 | 3.2 | 6.4 | 0.00 | 0.00 | 0.00 | 73 | 1010.8 |
| 20260505075151 | 17 | 212 | 3.2 | 6.4 | 0.00 | 0.00 | 0.00 | 73 | 1010.6 |
| 20260505074648 | 17 | 212 | 3.2 | 6.4 | 0.00 | 0.00 | 0.00 | 73 | 1010.6 |
| 20260505074145 | 17 | 212 | 3.2 | 6.4 | 0.00 | 0.00 | 0.00 | 73 | 1010.7 |
| 20260505073643 | 17 | 202 | 6.4 | 9.7 | 0.00 | 0.00 | 0.00 | 73 | 1010.7 |
| 20260505073141 | 17 | 202 | 6.4 | 9.7 | 0.00 | 0.00 | 0.00 | 73 | 1010.8 |
| 20260505072636 | 17 | 202 | 6.4 | 9.7 | 0.00 | 0.00 | 0.00 | 73 | 1010.9 |
| 20260505072133 | 17 | 205 | 11.3 | 11.3 | 0.00 | 0.00 | 0.00 | 73 | 1010.7 |
| 20260505071629 | 17 | 209 | 9.7 | 16.1 | 0.00 | 0.00 | 0.00 | 73 | 1010.9 |
| 20260505071127 | 17 | 203 | 11.3 | 11.3 | 0.00 | 0.00 | 0.00 | 73 | 1010.8 |
| 20260505070624 | 17 | 206 | 12.9 | 19.3 | 0.00 | 0.00 | 0.00 | 73 | 1010.8 |
| 20260505070120 | 17 | 214 | 4.8 | 11.3 | 0.00 | 0.00 | 0.00 | 73 | 1010.9 |
| 20260505065616 | 17 | 214 | 4.8 | 11.3 | 0.00 | 0.00 | 0.00 | 73 | 1010.8 |
| 20260505065112 | 17 | 214 | 4.8 | 11.3 | 0.00 | 0.00 | 0.00 | 73 | 1010.9 |
| 20260505064609 | 17 | 214 | 4.8 | 11.3 | 0.00 | 0.00 | 0.00 | 73 | 1010.9 |
| 20260505064108 | 17 | 176 | 6.4 | 11.3 | 0.00 | 0.00 | 0.00 | 73 | 1011.1 |
| 20260505063605 | 17 | 190 | 4.8 | 4.8 | 0.00 | 0.00 | 0.00 | 73 | 1011.0 |
| 20260505063101 | 16 | 198 | 8.0 | 11.3 | 0.00 | 0.00 | 0.00 | 73 | 1011.1 |
| 20260505062557 | 16 | 154 | 4.8 | 4.8 | 0.00 | 0.00 | 0.00 | 73 | 1010.8 |
| 20260505062055 | 17 | 144 | 3.2 | 12.9 | 0.00 | 0.00 | 0.00 | 73 | 1011.0 |
| 20260505061552 | 17 | 144 | 3.2 | 12.9 | 0.00 | 0.00 | 0.00 | 73 | 1011.1 |
| 20260505061050 | 17 | 144 | 3.2 | 12.9 | 0.00 | 0.00 | 0.00 | 73 | 1011.3 |
| 20260505060547 | 17 | 189 | 6.4 | 6.4 | 0.00 | 0.00 | 0.00 | 73 | 1011.4 |
| 20260505060044 | 17 | 189 | 6.4 | 6.4 | 0.00 | 0.00 | 0.00 | 73 | 1011.6 |
| 20260505055539 | 17 | 189 | 6.4 | 6.4 | 0.00 | 0.00 | 0.00 | 73 | 1012.0 |
| 20260505055036 | 17 | 189 | 6.4 | 6.4 | 0.00 | 0.00 | 0.00 | 73 | 1011.9 |
| 20260505054533 | 17 | 189 | 6.4 | 6.4 | 0.00 | 0.00 | 0.00 | 73 | 1011.9 |
| 20260505054032 | 17 | 189 | 6.4 | 6.4 | 0.00 | 0.00 | 0.00 | 73 | 1012.0 |
| 20260505053528 | 17 | 184 | 6.4 | 11.3 | 0.00 | 0.00 | 0.00 | 73 | 1011.7 |
| 20260505053025 | 17 | 184 | 6.4 | 11.3 | 0.00 | 0.00 | 0.00 | 73 | 1011.8 |
| 20260505052522 | 17 | 160 | 4.8 | 6.4 | 0.00 | 0.00 | 0.00 | 73 | 1011.8 |
| 20260505052019 | 17 | 185 | 8.0 | 12.9 | 0.00 | 0.00 | 0.00 | 73 | 1011.6 |
| 20260505051516 | 18 | 181 | 8.0 | 12.9 | 0.00 | 0.00 | 0.00 | 73 | 1012.1 |
| 20260505051014 | 18 | 181 | 8.0 | 12.9 | 0.00 | 0.00 | 0.00 | 73 | 1012.0 |
| 20260505050512 | 18 | 199 | 14.5 | 14.5 | 0.00 | 0.00 | 0.00 | 73 | 1012.2 |
| 20260505041439 | 18 | 195 | 6.4 | 11.3 | 0.00 | 0.00 | 0.00 | 73 | 1012.4 |
| 20260505040937 | 18 | 211 | 4.8 | 14.5 | 0.00 | 0.00 | 0.00 | 73 | 1012.3 |
| 20260505040434 | 18 | 234 | 8.0 | 8.0 | 0.00 | 0.00 | 0.00 | 73 | 1012.3 |
| 20260505035931 | 18 | 234 | 8.0 | 8.0 | 0.00 | 0.00 | 0.00 | 73 | 1012.6 |
| 20260505035427 | 19 | 221 | 9.7 | 14.5 | 0.00 | 0.00 | 0.00 | 73 | 1012.5 |
| 20260505034924 | 19 | 221 | 9.7 | 14.5 | 0.00 | 0.00 | 0.00 | 73 | 1012.7 |
| 20260505034421 | 19 | 213 | 8.0 | 12.9 | 0.00 | 0.00 | 0.00 | 73 | 1012.6 |
| 20260505033918 | 19 | 191 | 4.8 | 12.9 | 0.00 | 0.00 | 0.00 | 73 | 1012.7 |
| 20260505033414 | 19 | 205 | 9.7 | 12.9 | 0.00 | 0.00 | 0.00 | 73 | 1012.6 |
| 20260505032913 | 19 | 197 | 9.7 | 17.7 | 0.00 | 0.00 | 0.00 | 73 | 1012.8 |
| 20260505032409 | 20 | 209 | 8.0 | 8.0 | 0.00 | 0.00 | 0.00 | 73 | 1012.7 |
| 20260505031906 | 20 | 203 | 17.7 | 19.3 | 0.00 | 0.00 | 0.00 | 73 | 1012.6 |
| 20260505031403 | 20 | 192 | 9.7 | 22.5 | 0.00 | 0.00 | 0.00 | 73 | 1012.6 |
| 20260505030900 | 20 | 186 | 6.4 | 20.9 | 0.00 | 0.00 | 0.00 | 74 | 1012.7 |
| 20260505030356 | 20 | 194 | 6.4 | 11.3 | 0.00 | 0.00 | 0.00 | 73 | 1012.6 |
| 20260505025851 | 20 | 180 | 4.8 | 20.9 | 0.00 | 0.00 | 0.00 | 73 | 1012.4 |
| 20260505025349 | 20 | 219 | 19.3 | 20.9 | 0.00 | 0.00 | 0.00 | 74 | 1012.2 |
| 20260505024848 | 20 | 202 | 11.3 | 19.3 | 0.00 | 0.00 | 0.00 | 73 | 1012.3 |
| 20260505024345 | 20 | 202 | 16.1 | 22.5 | 0.00 | 0.00 | 0.00 | 74 | 1012.2 |
| 20260505023842 | 20 | 203 | 14.5 | 19.3 | 0.00 | 0.00 | 0.00 | 74 | 1012.2 |
| 20260505023339 | 20 | 194 | 11.3 | 24.1 | 0.00 | 0.00 | 0.00 | 74 | 1012.0 |
| 20260505022836 | 20 | 214 | 12.9 | 16.1 | 0.00 | 0.00 | 0.00 | 74 | 1012.1 |
| 20260505022333 | 20 | 203 | 11.3 | 16.1 | 0.00 | 0.00 | 0.00 | 74 | 1012.0 |
| 20260505021830 | 20 | 206 | 12.9 | 14.5 | 0.00 | 0.00 | 0.00 | 74 | 1011.9 |
| 20260505021327 | 20 | 198 | 9.7 | 12.9 | 0.00 | 0.00 | 0.00 | 74 | 1012.0 |
| 20260505020822 | 20 | 203 | 9.7 | 11.3 | 0.00 | 0.00 | 0.00 | 74 | 1011.7 |
| 20260505020318 | 20 | 205 | 9.7 | 19.3 | 0.00 | 0.00 | 0.00 | 74 | 1011.9 |
| 20260505015815 | 21 | 204 | 16.1 | 16.1 | 0.00 | 0.00 | 0.00 | 74 | 1011.5 |
| 20260505015313 | 21 | 208 | 9.7 | 14.5 | 0.00 | 0.00 | 0.00 | 74 | 1011.4 |
| 20260505014810 | 21 | 210 | 11.3 | 17.7 | 0.00 | 0.00 | 0.00 | 74 | 1011.3 |
| 20260505014307 | 21 | 200 | 8.0 | 11.3 | 0.00 | 0.00 | 0.00 | 74 | 1011.5 |
| 20260505013803 | 21 | 212 | 8.0 | 14.5 | 0.00 | 0.00 | 0.00 | 74 | 1011.3 |
| 20260505013300 | 21 | 198 | 6.4 | 9.7 | 0.00 | 0.00 | 0.00 | 74 | 1011.3 |
| 20260505012759 | 21 | 204 | 11.3 | 16.1 | 0.00 | 0.00 | 0.00 | 74 | 1011.4 |
| 20260505012256 | 21 | 203 | 14.5 | 20.9 | 0.00 | 0.00 | 0.00 | 74 | 1011.2 |
| 20260505011752 | 21 | 200 | 9.7 | 12.9 | 0.00 | 0.00 | 0.00 | 74 | 1011.2 |
| 20260505011249 | 21 | 207 | 14.5 | 19.3 | 0.00 | 0.00 | 0.00 | 74 | 1011.2 |
| 20260505010744 | 21 | 203 | 8.0 | 14.5 | 0.00 | 0.00 | 0.00 | 74 | 1011.2 |
| 20260505010241 | 22 | 212 | 9.7 | 14.5 | 0.00 | 0.00 | 0.00 | 74 | 1011.0 |
| 20260505005737 | 22 | 218 | 8.0 | 17.7 | 0.00 | 0.00 | 0.00 | 74 | 1011.1 |
| 20260505005234 | 22 | 209 | 16.1 | 20.9 | 0.00 | 0.00 | 0.00 | 74 | 1010.9 |
| 20260505004731 | 22 | 159 | 4.8 | 20.9 | 0.00 | 0.00 | 0.00 | 74 | 1011.1 |
| 20260505004228 | 22 | 202 | 17.7 | 20.9 | 0.00 | 0.00 | 0.00 | 74 | 1010.9 |
| 20260505003725 | 22 | 225 | 14.5 | 19.3 | 0.00 | 0.00 | 0.00 | 74 | 1011.1 |
| 20260505003223 | 23 | 204 | 6.4 | 22.5 | 0.00 | 0.00 | 0.00 | 74 | 1010.8 |
| 20260505002719 | 23 | 243 | 3.2 | 19.3 | 0.00 | 0.00 | 0.00 | 74 | 1011.2 |
| 20260505002217 | 23 | 205 | 9.7 | 22.5 | 0.00 | 0.00 | 0.00 | 74 | 1010.9 |
| 20260505001714 | 23 | 212 | 12.9 | 20.9 | 0.00 | 0.00 | 0.00 | 74 | 1010.8 |
| 20260505001211 | 23 | 218 | 20.9 | 20.9 | 0.00 | 0.00 | 0.00 | 74 | 1010.8 |
| 20260505000708 | 24 | 206 | 17.7 | 19.3 | 0.00 | 0.00 | 0.00 | 74 | 1010.8 |
| 20260505000206 | 23 | 206 | 14.5 | 24.1 | 0.00 | 0.00 | 0.00 | 74 | 1010.7 |
| 20260504235702 | 24 | 223 | 11.3 | 30.6 | 0.00 | 0.00 | 0.00 | 74 | 1010.7 |
| 20260504235158 | 24 | 203 | 17.7 | 17.7 | 0.00 | 0.00 | 0.00 | 75 | 1010.8 |
| 20260504234656 | 24 | 207 | 22.5 | 33.8 | 0.00 | 0.00 | 0.00 | 74 | 1010.8 |
| 20260504234153 | 24 | 207 | 17.7 | 25.7 | 0.00 | 0.00 | 0.00 | 75 | 1010.8 |
| 20260504233649 | 24 | 204 | 19.3 | 25.7 | 0.00 | 0.00 | 0.00 | 75 | 1011.0 |
| 20260504233145 | 24 | 204 | 12.9 | 29.0 | 0.00 | 0.00 | 0.00 | 75 | 1010.8 |
| 20260504232643 | 25 | 200 | 8.0 | 14.5 | 0.00 | 0.00 | 0.00 | 75 | 1010.8 |
| 20260504232139 | 25 | 222 | 14.5 | 33.8 | 0.00 | 0.00 | 0.00 | 75 | 1010.9 |
| 20260504231636 | 25 | 207 | 19.3 | 35.4 | 0.00 | 0.00 | 0.00 | 75 | 1011.1 |
| 20260504231132 | 25 | 231 | 30.6 | 30.6 | 0.00 | 0.00 | 0.00 | 75 | 1010.9 |
| 20260504230629 | 25 | 218 | 11.3 | 25.7 | 0.00 | 0.00 | 0.00 | 75 | 1011.0 |
| 20260504230128 | 25 | 206 | 16.1 | 22.5 | 0.00 | 0.00 | 0.00 | 75 | 1010.8 |
| 20260504225626 | 25 | 205 | 9.7 | 25.7 | 0.00 | 0.00 | 0.00 | 75 | 1010.9 |
| 20260504225121 | 25 | 264 | 8.0 | 30.6 | 0.00 | 0.00 | 0.00 | 75 | 1011.1 |
| 20260504224618 | 25 | 204 | 17.7 | 25.7 | 0.00 | 0.00 | 0.00 | 75 | 1010.9 |
| 20260504224115 | 25 | 229 | 9.7 | 33.8 | 0.00 | 0.00 | 0.00 | 75 | 1011.0 |
| 20260504223612 | 25 | 208 | 19.3 | 32.2 | 0.00 | 0.00 | 0.00 | 75 | 1010.9 |
| 20260504223108 | 26 | 212 | 9.7 | 22.5 | 0.00 | 0.00 | 0.00 | 75 | 1011.0 |
| 20260504222605 | 25 | 264 | 8.0 | 27.4 | 0.00 | 0.00 | 0.00 | 75 | 1010.9 |
| 20260504222102 | 25 | 256 | 8.0 | 29.0 | 0.00 | 0.00 | 0.00 | 75 | 1011.1 |
| 20260504221559 | 25 | 191 | 9.7 | 33.8 | 0.00 | 0.00 | 0.00 | 75 | 1011.2 |
| 20260504221056 | 25 | 197 | 14.5 | 32.2 | 0.00 | 0.00 | 0.00 | 75 | 1011.1 |
| 20260504220552 | 25 | 253 | 11.3 | 29.0 | 0.00 | 0.00 | 0.00 | 75 | 1011.1 |
| 20260504220049 | 25 | 205 | 19.3 | 24.1 | 0.00 | 0.00 | 0.00 | 75 | 1011.0 |
| 20260504215546 | 25 | 217 | 27.4 | 35.4 | 0.00 | 0.00 | 0.00 | 75 | 1011.3 |
| 20260504215044 | 26 | 211 | 6.4 | 24.1 | 0.00 | 0.00 | 0.00 | 75 | 1011.3 |
| 20260504214539 | 25 | 213 | 25.7 | 30.6 | 0.00 | 0.00 | 0.00 | 75 | 1011.3 |
| 20260504214036 | 25 | 208 | 22.5 | 38.6 | 0.00 | 0.00 | 0.00 | 75 | 1011.4 |
| 20260504213532 | 25 | 214 | 14.5 | 32.2 | 0.00 | 0.00 | 0.00 | 75 | 1011.1 |
| 20260504213030 | 25 | 212 | 19.3 | 33.8 | 0.00 | 0.00 | 0.00 | 75 | 1011.2 |
| 20260504212525 | 26 | 253 | 20.9 | 33.8 | 0.00 | 0.00 | 0.00 | 75 | 1011.4 |
| 20260504212023 | 26 | 210 | 6.4 | 33.8 | 0.00 | 0.00 | 0.00 | 75 | 1011.6 |
| 20260504211520 | 26 | 246 | 20.9 | 29.0 | 0.00 | 0.00 | 0.00 | 75 | 1011.4 |
| 20260504211017 | 26 | 103 | 6.4 | 35.4 | 0.00 | 0.00 | 0.00 | 75 | 1011.6 |
| 20260504210514 | 25 | 222 | 11.3 | 35.4 | 0.00 | 0.00 | 0.00 | 75 | 1011.6 |
| 20260504210010 | 26 | 240 | 8.0 | 27.4 | 0.00 | 0.00 | 0.00 | 75 | 1011.7 |
| 20260504205508 | 25 | 213 | 14.5 | 38.6 | 0.00 | 0.00 | 0.00 | 75 | 1011.6 |
| 20260504205006 | 26 | 264 | 14.5 | 29.0 | 0.00 | 0.00 | 0.00 | 75 | 1011.7 |
| 20260504204504 | 25 | 200 | 14.5 | 41.8 | 0.00 | 0.00 | 0.00 | 75 | 1011.8 |
| 20260504204003 | 26 | 236 | 8.0 | 33.8 | 0.00 | 0.00 | 0.00 | 75 | 1011.8 |
| 20260504203500 | 26 | 249 | 14.5 | 30.6 | 0.00 | 0.00 | 0.00 | 75 | 1011.8 |
| 20260504202956 | 26 | 256 | 25.7 | 32.2 | 0.00 | 0.00 | 0.00 | 75 | 1012.1 |
| 20260504202453 | 26 | 225 | 6.4 | 25.7 | 0.00 | 0.00 | 0.00 | 75 | 1012.0 |
| 20260504201950 | 26 | 216 | 3.2 | 24.1 | 0.00 | 0.00 | 0.00 | 75 | 1012.0 |
| 20260504201447 | 25 | 230 | 41.8 | 43.5 | 0.00 | 0.00 | 0.00 | 75 | 1012.0 |
| 20260504200944 | 25 | 209 | 29.0 | 35.4 | 0.00 | 0.00 | 0.00 | 75 | 1012.2 |
| 20260504200441 | 26 | 247 | 27.4 | 37.0 | 0.00 | 0.00 | 0.00 | 75 | 1012.2 |
| 20260504195938 | 26 | 206 | 8.0 | 33.8 | 0.00 | 0.00 | 0.00 | 75 | 1012.3 |
| 20260504195433 | 26 | 215 | 49.9 | 49.9 | 0.00 | 0.00 | 0.00 | 75 | 1012.4 |
| 20260504194930 | 25 | 223 | 32.2 | 35.4 | 0.00 | 0.00 | 0.00 | 75 | 1012.4 |
| 20260504194426 | 25 | 261 | 17.7 | 35.4 | 0.00 | 0.00 | 0.00 | 75 | 1012.4 |
| 20260504193922 | 25 | 221 | 3.2 | 32.2 | 0.00 | 0.00 | 0.00 | 75 | 1012.3 |
| 20260504193420 | 25 | 199 | 14.5 | 51.5 | 0.00 | 0.00 | 0.00 | 75 | 1012.5 |
| 20260504192918 | 25 | 221 | 24.1 | 33.8 | 0.00 | 0.00 | 0.00 | 75 | 1012.5 |
| 20260504192415 | 25 | 210 | 24.1 | 40.2 | 0.00 | 0.00 | 0.00 | 75 | 1012.6 |
| 20260504191914 | 25 | 210 | 22.5 | 41.8 | 0.00 | 0.00 | 0.00 | 75 | 1012.7 |
| 20260504191412 | 25 | 198 | 30.6 | 30.6 | 0.00 | 0.00 | 0.00 | 75 | 1012.7 |
| 20260504190907 | 25 | 243 | 14.5 | 27.4 | 0.00 | 0.00 | 0.00 | 75 | 1012.6 |
| 20260504190403 | 25 | 209 | 25.7 | 35.4 | 0.00 | 0.00 | 0.00 | 75 | 1012.7 |
| 20260504185900 | 25 | 222 | 35.4 | 40.2 | 0.00 | 0.00 | 0.00 | 75 | 1012.8 |
| 20260504185357 | 25 | 202 | 9.7 | 30.6 | 0.00 | 0.00 | 0.00 | 75 | 1012.6 |
| 20260504184853 | 25 | 75 | 4.8 | 40.2 | 0.00 | 0.00 | 0.00 | 75 | 1013.2 |
| 20260504184349 | 25 | 211 | 4.8 | 35.4 | 0.00 | 0.00 | 0.00 | 75 | 1012.8 |
| 20260504183845 | 25 | 210 | 9.7 | 24.1 | 0.00 | 0.00 | 0.00 | 75 | 1013.2 |
| 20260504183342 | 25 | 217 | 25.7 | 32.2 | 0.00 | 0.00 | 0.00 | 75 | 1012.8 |
| 20260504182840 | 24 | 255 | 14.5 | 35.4 | 0.00 | 0.00 | 0.00 | 75 | 1013.1 |
| 20260504182337 | 25 | 250 | 16.1 | 43.5 | 0.00 | 0.00 | 0.00 | 75 | 1013.1 |
| 20260504181834 | 24 | 208 | 22.5 | 46.7 | 0.00 | 0.00 | 0.00 | 74 | 1013.0 |
| 20260504181331 | 24 | 188 | 4.8 | 40.2 | 0.00 | 0.00 | 0.00 | 74 | 1012.8 |
| 20260504180830 | 24 | 202 | 9.7 | 35.4 | 0.00 | 0.00 | 0.00 | 74 | 1013.1 |
| 20260504180328 | 24 | 232 | 32.2 | 37.0 | 0.00 | 0.00 | 0.00 | 74 | 1013.4 |
| 20260504175826 | 24 | 219 | 16.1 | 32.2 | 0.00 | 0.00 | 0.00 | 75 | 1013.1 |
| 20260504175322 | 24 | 184 | 3.2 | 32.2 | 0.00 | 0.00 | 0.00 | 75 | 1013.3 |
| 20260504174821 | 23 | 205 | 19.3 | 40.2 | 0.00 | 0.00 | 0.00 | 74 | 1013.5 |
| 20260504174318 | 23 | 225 | 12.9 | 45.1 | 0.00 | 0.00 | 0.00 | 74 | 1013.2 |
| 20260504173814 | 23 | 195 | 14.5 | 30.6 | 0.00 | 0.00 | 0.00 | 74 | 1013.4 |
| 20260504173311 | 23 | 232 | 6.4 | 38.6 | 0.00 | 0.00 | 0.00 | 74 | 1013.6 |
| 20260504172808 | 23 | 196 | 8.0 | 32.2 | 0.00 | 0.00 | 0.00 | 74 | 1013.5 |
| 20260504172305 | 23 | 254 | 16.1 | 32.2 | 0.00 | 0.00 | 0.00 | 74 | 1013.4 |
| 20260504171800 | 23 | 213 | 14.5 | 29.0 | 0.00 | 0.00 | 0.00 | 74 | 1013.7 |
| 20260504171258 | 23 | 245 | 27.4 | 35.4 | 0.00 | 0.00 | 0.00 | 74 | 1013.5 |
| 20260504170755 | 23 | 200 | 4.8 | 43.5 | 0.00 | 0.00 | 0.00 | 74 | 1013.6 |
| 20260504170252 | 23 | 190 | 11.3 | 38.6 | 0.00 | 0.00 | 0.00 | 74 | 1013.8 |
| 20260504160210 | 22 | 241 | 6.4 | 37.0 | 0.00 | 0.00 | 0.00 | 74 | 1014.2 |
| 20260504151138 | 21 | 196 | 8.0 | 45.1 | 0.00 | 0.00 | 0.00 | 74 | 1014.7 |
| 20260504150636 | 21 | 227 | 29.0 | 37.0 | 0.00 | 0.00 | 0.00 | 74 | 1014.7 |
| 20260504150132 | 21 | 226 | 25.7 | 32.2 | 0.00 | 0.00 | 0.00 | 74 | 1014.8 |
| 20260504141101 | 19 | 264 | 12.9 | 40.2 | 0.00 | 0.00 | 0.00 | 73 | 1015.2 |
| 20260504140558 | 20 | 225 | 30.6 | 38.6 | 0.00 | 0.00 | 0.00 | 73 | 1015.4 |
| 20260504130522 | 18 | 251 | 4.8 | 24.1 | 0.00 | 0.00 | 0.00 | 73 | 1015.4 |
| 20260504110409 | 16 | 224 | 12.9 | 20.9 | 0.00 | 0.00 | 0.00 | 73 | 1014.9 |
| 20260504100326 | 16 | 259 | 0.0 | 19.3 | 0.00 | 0.00 | 0.00 | 73 | 1015.1 |